Location: Cabeza de los Veneras
(40.2000°N, 5.2000°W)
Time: 11:15:13
(UTC+00:00)

Genesis I - Pass Details

Date: 18 April 2024
Orbit: 438 x 467 km, 64.5° (Epoch: 21 May)

Event Time Altitude Azimuth Distance (km) Brightness Sun altitude
Rises 20:56:37 0° 331° (NNW) 2,520 7.8 -20.3°
Reaches altitude 10° 20:58:47 10° 336° (NNW) 1,644 6.6 -20.7°
Enters shadow 21:02:11 54° 39° (NE) 583 3.3 -21.2°
